Location: Brivio
(45.7333°N, 9.4500°E)
Time: 20:51:02
(UTC+00:00)

N. Korean satellite - Pass Details

Date: 19 December 2019
Orbit: 454 x 507 km, 97.2° (Epoch: 28 January)

Event Time Altitude Azimuth Distance (km) Brightness Sun altitude
Rises 05:51:17 0° 3° (N) 2,518 10.0 -11.2°
Reaches altitude 10° 05:53:28 10° 354° (N) 1,628 9.0 -10.9°
Maximum altitude 05:56:38 33° 289° (WNW) 796 7.1 -10.4°
Drops below altitude 10° 05:59:45 10° 224° (SW) 1,597 9.0 -9.9°
Sets 06:01:52 0° 214° (SW) 2,462 10.0 -9.5°
